Weather History for KBBB - November, 2012

Change the Weather History Date:

Thursday, November 8, 2012

  Actual Average Record
Temperature  
Mean Temperature 42 °F -  
Max Temperature 53 °F 43 °F 80 °F (1999)
Min Temperature 28 °F 25 °F 6 °F (1991)
Degree Days  
Heating Degree Days 24    
Moisture  
Dew Point 34 °F    
Average Humidity 80    
Maximum Humidity 100    
Minimum Humidity 54    
Precipitation  
Precipitation 0.00 in - - ()
Sea Level Pressure  
Sea Level Pressure 29.93 in    
Wind  
Wind Speed 11 mph (ENE)    
Max Wind Speed 16 mph    
Max Gust Speed 25 mph    
Visibility 10 miles    
Events      
Averages and records for this station are not official NWS values.
T = Trace of Precipitation, MM = Missing Value Source: NWS Daily Summary

Daily Weather History Graph

Daily Weather History Graph

Search for Another Location

Airport or City:

Trip Planner

Search our weather history database for the weather conditions in past years. The results will help you decide how hot, cold, wet, or windy it might be!

Date:

Astronomy

Nov. 08, 2012 Rise Set
Actual Time 7:12 AM CST 4:59 PM CST
Civil Twilight 6:40 AM CST 5:31 PM CST
Nautical Twilight 6:05 AM CST 6:06 PM CST
Astronomical Twilight 5:30 AM CST 6:41 PM CST
Moon 12:52 AM CST (11/8) 1:56 PM CST (11/8)
Length of Visible Light 10h 50m
Length of Day
9h 47m
Waning Crescent, 32% of the Moon is Illuminated
Nov 8
Waning Crescent
Nov 13
New
Nov 20
First Quarter
Nov 28
Full
Dec 6
Last Quarter

Hourly Weather History & Observations

Time (CST) Temp. Windchill Dew Point Humidity Pressure Visibility Wind Dir Wind Speed Gust Speed Precip Events Conditions
12:13 AM 37.4 °F 28.9 °F 33.8 °F 87% 29.93 in 10.0 mi South 13.8 mph - N/A   Clear
12:33 AM 37.4 °F 28.9 °F 33.8 °F 87% 29.92 in 10.0 mi South 13.8 mph 20.7 mph N/A   Clear
12:52 AM 37.4 °F 28.9 °F 33.8 °F 87% 29.91 in 10.0 mi South 13.8 mph 20.7 mph N/A   Clear
1:13 AM 37.4 °F 28.9 °F 33.8 °F 87% 29.90 in 10.0 mi South 13.8 mph 21.9 mph N/A   Clear
1:33 AM 37.4 °F 28.5 °F 32.0 °F 81% 29.89 in 10.0 mi South 15.0 mph 20.7 mph N/A   Clear
1:52 AM 37.4 °F 28.5 °F 32.0 °F 81% 29.89 in 10.0 mi South 15.0 mph 25.3 mph N/A   Clear
2:13 AM 35.6 °F 25.9 °F 32.0 °F 87% 29.88 in 10.0 mi South 16.1 mph 19.6 mph N/A   Clear
2:33 AM 35.6 °F 25.9 °F 32.0 °F 87% 29.87 in 10.0 mi South 16.1 mph 21.9 mph N/A   Clear
2:52 AM 37.4 °F 29.3 °F 32.0 °F 81% 29.88 in 10.0 mi South 12.7 mph - N/A   Clear
3:13 AM 35.6 °F 26.6 °F 32.0 °F 87% 29.87 in 10.0 mi South 13.8 mph - N/A   Clear
3:33 AM 35.6 °F 27.1 °F 32.0 °F 87% 29.86 in 10.0 mi South 12.7 mph 18.4 mph N/A   Clear
3:52 AM 35.6 °F 27.5 °F 32.0 °F 87% 29.87 in 10.0 mi South 11.5 mph 17.3 mph N/A   Clear
4:13 AM 35.6 °F 27.1 °F 32.0 °F 87% 29.85 in 10.0 mi South 12.7 mph 16.1 mph N/A   Clear
4:33 AM 35.6 °F 27.1 °F 32.0 °F 87% 29.85 in 10.0 mi South 12.7 mph 20.7 mph N/A   Clear
4:52 AM 35.6 °F 27.5 °F 30.2 °F 81% 29.86 in 10.0 mi South 11.5 mph - N/A   Clear
5:13 AM 35.6 °F 28.0 °F 30.2 °F 81% 29.87 in 10.0 mi South 10.4 mph - N/A   Clear
5:32 AM 35.6 °F 28.6 °F 32.0 °F 87% 29.86 in 10.0 mi South 9.2 mph - N/A   Clear
5:52 AM 33.8 °F 25.8 °F 30.2 °F 87% 29.86 in 10.0 mi South 10.4 mph - N/A   Clear
6:12 AM 35.6 °F 28.0 °F 30.2 °F 81% 29.86 in 10.0 mi South 10.4 mph - N/A   Clear
6:32 AM 35.6 °F 28.6 °F 30.2 °F 81% 29.86 in 10.0 mi South 9.2 mph - N/A   Clear
6:53 AM 33.8 °F 27.0 °F 30.2 °F 87% 29.87 in 10.0 mi South 8.1 mph - N/A   Clear
7:12 AM 33.8 °F 27.0 °F 32.0 °F 93% 29.87 in 10.0 mi South 8.1 mph - N/A   Clear
7:33 AM 35.6 °F 30.7 °F 32.0 °F 87% 29.88 in 10.0 mi South 5.8 mph - N/A   Clear
7:52 AM 35.6 °F 30.7 °F 32.0 °F 87% 29.88 in 10.0 mi South 5.8 mph - N/A   Clear
8:12 AM 35.6 °F 29.9 °F 32.0 °F 87% 29.89 in 10.0 mi South 6.9 mph - N/A   Clear
8:33 AM 37.4 °F 31.4 °F 33.8 °F 87% 29.89 in 10.0 mi South 8.1 mph - N/A   Clear
8:52 AM 39.2 °F 34.2 °F 33.8 °F 81% 29.90 in 10.0 mi South 6.9 mph - N/A   Clear
9:13 AM 41.0 °F 35.2 °F 33.8 °F 76% 29.90 in 10.0 mi SSW 9.2 mph - N/A   Clear
9:33 AM 42.8 °F 38.0 °F 35.6 °F 76% 29.90 in 10.0 mi SSW 8.1 mph - N/A   Clear
9:52 AM 42.8 °F 39.3 °F 35.6 °F 76% 29.90 in 10.0 mi SSW 5.8 mph - N/A   Clear
10:13 AM 44.6 °F 41.4 °F 35.6 °F 71% 29.91 in 10.0 mi SW 5.8 mph - N/A   Clear
10:32 AM 46.4 °F 44.3 °F 35.6 °F 66% 29.91 in 10.0 mi West 4.6 mph - N/A   Clear
10:52 AM 46.4 °F 43.5 °F 35.6 °F 66% 29.91 in 10.0 mi West 5.8 mph - N/A   Clear
11:13 AM 48.2 °F - 35.6 °F 62% 29.91 in 10.0 mi NW 4.6 mph - N/A   Clear
11:32 AM 50.0 °F - 35.6 °F 58% 29.91 in 10.0 mi NNW 8.1 mph - N/A   Clear
11:52 AM 51.8 °F - 35.6 °F 54% 29.91 in 10.0 mi NNW 9.2 mph - N/A   Clear
12:12 PM 51.8 °F - 35.6 °F 54% 29.91 in 10.0 mi NNE 10.4 mph - N/A   Clear
12:32 PM 51.8 °F - 37.4 °F 58% 29.91 in 10.0 mi North 10.4 mph - N/A   Clear
12:53 PM 53.6 °F - 37.4 °F 54% 29.91 in 10.0 mi North 9.2 mph - N/A   Clear
1:12 PM 53.6 °F - 37.4 °F 54% 29.92 in 10.0 mi North 13.8 mph 19.6 mph N/A   Clear
1:32 PM 51.8 °F - 37.4 °F 58% 29.92 in 10.0 mi North 13.8 mph - N/A   Clear
1:53 PM 51.8 °F - 37.4 °F 58% 29.92 in 10.0 mi NNE 15.0 mph - N/A   Clear
2:12 PM 51.8 °F - 39.2 °F 62% 29.93 in 10.0 mi North 10.4 mph - N/A   Clear
2:33 PM 51.8 °F - 39.2 °F 62% 29.93 in 10.0 mi North 15.0 mph - N/A   Clear
2:53 PM 50.0 °F - 39.2 °F 66% 29.94 in 10.0 mi North 15.0 mph - N/A   Clear
3:12 PM 48.2 °F - 39.2 °F 71% 29.95 in 10.0 mi North 11.5 mph 18.4 mph N/A   Clear
3:33 PM 48.2 °F - 39.2 °F 71% 29.96 in 10.0 mi North 12.7 mph 18.4 mph N/A   Clear
3:53 PM 46.4 °F 40.1 °F 37.4 °F 71% 29.96 in 10.0 mi North 15.0 mph - N/A   Clear
4:12 PM 46.4 °F 41.1 °F 37.4 °F 71% 29.96 in 10.0 mi North 11.5 mph 18.4 mph N/A   Clear
4:33 PM 44.6 °F 38.4 °F 37.4 °F 76% 29.97 in 10.0 mi North 12.7 mph - N/A   Clear
4:53 PM 42.8 °F 36.6 °F 37.4 °F 81% 29.98 in 10.0 mi NNE 11.5 mph - N/A   Clear
5:12 PM 41.0 °F 33.9 °F 37.4 °F 87% 29.99 in 10.0 mi NNE 12.7 mph 19.6 mph N/A   Scattered Clouds
5:33 PM 41.0 °F 33.5 °F 37.4 °F 87% 29.99 in 10.0 mi NNE 13.8 mph 18.4 mph N/A   Mostly Cloudy
5:52 PM 41.0 °F 33.9 °F 35.6 °F 81% 30.00 in 10.0 mi NNE 12.7 mph 20.7 mph N/A   Overcast
6:12 PM 41.0 °F 35.2 °F 35.6 °F 81% 30.01 in 10.0 mi NNE 9.2 mph 18.4 mph N/A   Overcast
6:33 PM 39.2 °F 32.5 °F 35.6 °F 87% 30.01 in 10.0 mi NNE 10.4 mph 17.3 mph N/A   Mostly Cloudy
6:53 PM 39.2 °F 33.6 °F 35.6 °F 87% 30.01 in 10.0 mi NE 8.1 mph - N/A   Mostly Cloudy
7:12 PM 39.2 °F 33.6 °F 35.6 °F 87% 30.02 in 10.0 mi NE 8.1 mph - N/A   Overcast
7:33 PM 39.2 °F 33.0 °F 35.6 °F 87% 30.01 in 10.0 mi NE 9.2 mph - N/A   Mostly Cloudy
7:52 PM 37.4 °F 32.1 °F 33.8 °F 87% 30.01 in 10.0 mi NE 6.9 mph - N/A   Scattered Clouds
8:12 PM 35.6 °F 30.7 °F 33.8 °F 93% 30.01 in 10.0 mi ENE 5.8 mph - N/A   Clear
8:33 PM 35.6 °F 29.2 °F 33.8 °F 93% 30.02 in 10.0 mi NE 8.1 mph - N/A   Clear
8:52 PM 33.8 °F 27.0 °F 32.0 °F 93% 30.02 in 10.0 mi NE 8.1 mph - N/A   Clear
9:12 PM 35.6 °F 30.7 °F 32.0 °F 87% 30.02 in 10.0 mi NE 5.8 mph - N/A   Clear
9:33 PM 33.8 °F 29.6 °F 32.0 °F 93% 30.03 in 10.0 mi NNE 4.6 mph - N/A   Clear
9:52 PM 32.0 °F 28.7 °F 30.2 °F 93% 30.03 in 7.0 mi NNE 3.5 mph - N/A   Clear
10:12 PM 30.2 °F 26.7 °F 30.2 °F 100% 30.03 in 7.0 mi NNE 3.5 mph - N/A   Clear
10:33 PM 32.0 °F 28.7 °F 30.2 °F 93% 30.03 in 7.0 mi NE 3.5 mph - N/A   Clear
10:52 PM 32.0 °F 28.7 °F 30.2 °F 93% 30.03 in 7.0 mi NNE 3.5 mph - N/A   Clear
11:12 PM 30.2 °F 26.7 °F 30.2 °F 100% 30.03 in 4.0 mi NNE 3.5 mph - N/A   Clear
11:33 PM 30.2 °F 25.4 °F 28.4 °F 93% 30.03 in 5.0 mi NNE 4.6 mph - N/A   Clear
11:52 PM 28.4 °F 23.3 °F 28.4 °F 100% 30.03 in 5.0 mi NNE 4.6 mph - N/A   Clear